Regional Weather Roundup
Issued by NWS

Home | Current Version | Previous Version | Text Only | Print | Product List | Glossary On
Versions: 1 2 3 4 5 6 7 8 9 10 11 12 13 14 15 16 17 18 19 20 21 22 23 24 25 26 27 28 29 30 31 32 33 34 35 36 37 38 39 40 41 42 43 44 45 46 47 48 49 50
000
ASUS43 KLSX 271707
RWRMO

WEATHER SUMMARY FOR MISSOURI
NATIONAL WEATHER SERVICE SPRINGFIELD MO
1200 PM CDT FRI MAR 27 2015

NOTE: "FAIR" INDICATES FEW OR NO CLOUDS BELOW 12,000 FEET WITH NO
       SIGNIFICANT WEATHER AND/OR OBSTRUCTIONS TO VISIBILITY.
       CURRENT SKY AND/OR WEATHER CONDITIONS ARE NOT AVAILABLE FOR
       CHILLICOTHE AND FARMINGTON.

MOZ001>031-035>038-043-044-053-054-271800-
...NORTHERN AND WESTERN MISSOURI...

CITY           SKY/WX    TMP DP  RH WIND       PRES   REMARKS
KANSAS CTY INT MOSUNNY   39  21  48 N13       30.26F
KANSAS C DTWN  MOSUNNY   40  20  44 N9G17     30.27F
LEE`S SUMMIT   SUNNY     39  20  46 N13G18    30.26F
ST JOSEPH      SUNNY     37  19  48 N12       30.29F WCI  29
CHILLICOTHE      N/A     38  20  48 NW8       30.27S
KIRKSVILLE     MOSUNNY   37  15  40 NW14      30.22F WCI  28

$$
MOZ066>068-077>081-088>096-101>105-271800-
...SOUTHWEST MISSOURI...

CITY           SKY/WX    TMP DP  RH WIND       PRES   REMARKS
SPRINGFIELD    CLOUDY    39  30  70 N13       30.20R
JOPLIN         PTSUNNY   43  28  55 N15       30.25S

$$
MOZ032>034-039>042-045>050-055>058-069>072-271800-
...CENTRAL MISSOURI...

CITY           SKY/WX    TMP DP  RH WIND       PRES   REMARKS
COLUMBIA       PTSUNNY   38  22  52 N17       30.21F WCI  28
JEFFERSON CITY PTSUNNY   38  19  46 N12       30.23S
ROLLA          CLOUDY    36  22  56 MISG      30.17S
SEDALIA        MOSUNNY   39  25  57 NW9       30.23F
WHITEMAN AFB   PTSUNNY   38  22  52 NW9G17    30.23F
WARRENSBURG    MOSUNNY   37  21  52 NW12G18   30.25F WCI  30
OSAGE BEACH    CLOUDY    39  23  52 NW8       30.21S

$$
MOZ051-052-059>065-271800-
...EAST CENTRAL MISSOURI...

CITY           SKY/WX    TMP DP  RH WIND       PRES   REMARKS
ST LOUIS INTL  FLURRIES  38  23  55 N13       30.19S WCI  30
SPIRIT OF STL  CLOUDY    37  21  52 N8        30.20R
ST CHARLES     CLOUDY    36  22  56 NE10      30.20S WCI  28

$$
MOZ072>076-082>087-097>100-106>115-271800-
...SOUTH CENTRAL AND SOUTHEAST MISSOURI...

CITY           SKY/WX    TMP DP  RH WIND       PRES   REMARKS
CAPE GIRARDEAU CLOUDY    38  31  76 N16       30.14S WCI  29
FARMINGTON     CLOUDY    36  25  64 NW13      30.18S WCI  27
POPLAR BLUFF   PTSUNNY   43  30  60 N17G23    30.13F
WEST PLAINS    CLOUDY    40  30  67 MISG      30.16S

$$


USA.gov is the U.S. government's official web portal to all federal, state and local government web resources and services.